Location: Cuiry
(49.3858°N, 3.7708°E)
Time: 23:54:41
(UTC+00:00)

ISS - Pass Details

Date: 12 January 2026
Orbit: 414 x 429 km, 51.6° (Epoch: 9 February)

Event Time Altitude Azimuth Distance (km) Brightness Sun altitude
Rises 18:07:58 0° 208° (SSW) 2,351 0.6 -18.5°
Reaches altitude 10° 18:10:22 10° 192° (SSW) 1,495 -0.7 -18.9°
Enters shadow 18:12:13 19° 161° (SSE) 1,055 -1.8 -19.2°
